Temperature
15 16 16 16 17 18 20 23 24 23 23 22 22 23 22 21 20 17 16 16 16 16 16 17 17 17 17 17 17 17 17 17 17 17 17 17 17 17 17 17 17 17 17 17 16 16 16 16 16
15 15 16 17 17 19 21 22 23 22 21 21 22 22 22 20 19 17 16 16 16 16 16 17 17 17 17 17 17 17 17 17 17 17 17 17 17 17 17 17 17 17 17 16 16 16 16 16 16
15 15 17 18 19 20 22 22 22 21 21 21 21 21 21 19 18 16 16 16 16 16 16 16 17 17 17 17 17 17 17 17 17 17 17 17 17 16 16 17 17 16 16 16 16 16 16 16 16
15 16 17 18 19 21 22 21 20 21 21 21 21 20 19 18 17 16 16 16 16 16 16 16 16 17 17 17 17 17 17 17 16 16 16 16 16 16 16 16 16 16 16 16 16 16 16 16 16
15 17 17 18 19 21 21 21 20 20 21 21 20 20 18 17 16 16 16 16 16 16 16 16 16 16 16 16 17 17 16 16 16 16 16 16 16 16 16 16 16 16 16 16 16 16 16 16 16
16 18 18 18 20 21 20 20 20 20 20 20 20 19 17 16 16 15 15 15 15 15 15 15 15 16 16 16 16 16 16 16 16 16 16 16 16 16 16 16 16 16 16 16 16 15 15 15 15
16 17 18 19 20 20 20 19 19 19 19 19 19 18 17 16 15 15 15 15 15 15 15 15 15 15 15 15 16 16 16 16 16 16 16 16 16 16 15 16 16 16 15 15 15 15 15 15 15
15 17 18 19 20 20 19 18 18 18 18 18 18 18 17 15 15 15 15 15 14 14 14 14 14 14 15 15 15 15 15 15 16 16 16 15 15 15 15 15 15 15 15 15 15 15 15 15 15
15 15 17 19 19 18 17 17 17 16 17 17 17 17 16 15 15 14 14 14 14 14 14 13 13 14 14 14 14 14 14 15 15 15 15 15 15 15 15 15 15 15 15 15 15 14 15 15 14
15 15 17 17 17 17 16 16 16 16 16 17 16 16 15 15 14 14 14 14 14 13 13 13 13 13 13 13 14 14 14 14 14 14 14 14 14 14 14 14 14 14 14 14 14 14 14 14 14
16 15 17 16 15 15 15 15 15 15 15 16 16 15 15 14 14 14 14 14 13 13 13 12 12 12 13 13 13 13 13 13 14 14 14 14 14 14 14 14 14 14 14 14 14 14 14 14 14
16 16 16 15 14 14 14 15 15 15 15 15 15 14 14 14 13 13 13 13 13 12 12 12 12 12 12 12 12 12 13 13 13 13 13 13 13 13 13 13 13 13 13 13 13 13 14 14 14
15 15 15 14 13 13 13 13 14 14 14 15 14 14 13 13 13 13 13 13 12 12 12 11 11 11 11 12 12 12 12 12 12 12 12 12 12 12 12 12 12 13 13 13 13 13 13 13 13
15 14 14 14 14 14 13 13 14 14 14 14 14 14 14 13 13 13 13 12 12 12 11 11 11 11 11 11 11 11 11 11 11 12 12 12 12 12 12 12 12 12 12 12 12 12 12 12 12
13 13 13 14 14 14 13 12 13 14 15 14 14 14 14 13 13 13 12 12 12 11 11 11 10 10 10 10 11 11 11 11 11 11 11 11 11 11 11 11 11 11 11 11 12 12 12 12 12
13 13 13 15 14 13 12 12 16 16 15 15 14 14 14 13 13 12 12 12 11 11 11 10 10 10 10 10 10 10 10 10 10 10 10 10 10 10 10 11 11 11 11 11 11 11 11 11 12
13 13 15 14 14 14 12 12 15 15 15 15 15 15 14 13 13 12 12 11 11 11 10 10 10 10 10 10 10 10 9 9 10 10 10 10 10 10 10 10 10 10 10 10 10 10 10 11 11
14 14 15 15 14 13 12 12 14 15 15 15 15 15 14 14 13 12 12 11 11 10 10 10 9 9 9 9 9 9 9 9 9 9 9 9 9 9 9 9 9 9 9 9 9 10 10 10 10
14 13 13 14 14 12 12 12 13 14 15 14 15 15 14 14 13 12 11 11 10 10 10 9 9 9 9 9 9 9 9 9 9 9 9 9 9 9 8 8 8 8 8 9 9 9 9 9 9
13 12 13 14 14 13 11 12 13 14 14 15 14 14 14 13 12 12 11 11 10 10 9 9 9 8 8 8 8 8 8 8 8 8 8 8 8 8 8 8 8 8 8 8 8 8 8 9 9
12 12 12 12 12 12 11 11 13 14 14 14 14 13 13 13 12 11 11 10 10 9 9 9 8 8 8 8 8 7 7 7 7 8 8 8 8 8 8 7 7 7 7 7 8 7 8 8 8
11 12 12 12 10 10 12 9 12 13 13 12 12 13 13 12 11 11 10 10 10 9 9 8 8 8 8 7 7 7 7 7 7 7 7 7 7 7 7 7 7 7 7 7 7 7 7 7 8
11 11 11 11 10 9 10 9 10 13 12 12 12 12 12 12 11 11 10 10 9 9 9 8 8 8 7 7 7 7 7 7 7 7 7 7 7 7 7 7 7 6 6 6 7 7 7 7 7
11 10 10 10 9 7 9 9 10 12 13 12 12 12 12 11 11 10 10 10 9 9 8 8 8 7 7 7 7 7 7 7 6 6 6 6 6 6 6 6 6 6 6 6 6 6 6 7 7
10 8 8 8 7 8 11 10 10 13 13 13 11 12 12 11 10 10 10 9 9 8 8 8 7 7 7 7 6 6 7 6 6 6 6 6 6 6 6 6 6 6 6 6 6 6 6 6 6
8 9 8 8 9 10 11 9 11 13 13 13 12 12 11 11 10 10 9 9 9 8 8 7 7 7 7 6 6 6 6 6 6 6 6 5 6 6 6 6 5 5 5 5 5 5 5 6 6
9 8 9 8 8 7 9 11 13 12 12 11 11 11 11 11 10 10 9 9 8 8 7 7 7 6 6 6 6 6 6 6 5 5 5 5 5 5 5 5 5 5 5 5 5 5 5 5 6
9 9 7 7 6 7 9 10 10 11 11 11 10 11 11 10 10 9 9 8 8 7 7 7 6 6 6 6 5 5 5 5 5 5 5 5 5 5 5 5 5 5 5 4 4 5 5 5 5
7 8 7 7 7 7 8 10 12 11 11 10 10 11 11 10 10 9 8 8 7 7 7 6 6 6 5 5 5 5 5 5 5 5 4 4 4 4 4 4 4 4 4 4 4 4 5 5 5
8 8 7 5 5 6 6 8 12 11 11 11 10 11 11 10 9 9 8 8 7 7 6 6 5 5 5 5 5 4 4 4 4 4 4 4 4 4 4 4 4 4 4 4 4 4 4 4 5
Wind_Speed
12 12 8 3 4 5 7 5 1 5 4 5 7 5 6 6 6 8 4 5 5 7 11 11 10 10 9 8 7 6 5 3 2 2 1 2 2 3 4 5 6 6 6 6 6 7 7 7 8
12 8 5 4 4 6 7 5 4 5 6 5 3 2 2 5 8 8 5 4 5 7 10 10 10 10 10 9 8 7 6 4 2 1 1 1 2 3 3 4 5 6 6 6 6 6 7 7 8
10 8 4 4 5 5 2 5 7 8 6 2 1 2 3 5 7 5 4 3 4 7 10 10 10 9 9 9 8 7 6 5 3 2 1 0 1 2 3 4 5 6 7 7 7 6 6 7 8
5 4 5 6 10 6 2 5 7 5 3 1 1 2 4 7 5 5 4 4 5 6 9 9 9 8 8 8 7 7 6 5 4 3 2 1 1 2 3 4 5 5 6 7 7 8 8 8 9
4 4 6 7 10 5 3 6 4 1 3 2 1 1 4 7 8 7 5 5 6 6 7 7 7 6 6 7 6 6 6 4 4 3 2 2 2 2 3 4 5 5 6 7 8 8 9 8 9
4 4 5 9 9 4 4 3 1 4 1 2 1 0 4 5 7 6 5 5 5 5 5 5 5 5 5 5 5 5 5 4 3 3 2 2 3 3 3 4 5 6 6 7 8 9 9 10 9
5 4 7 9 5 3 4 3 2 3 2 1 2 2 5 5 6 4 4 5 5 5 4 4 3 3 3 4 4 4 4 4 3 3 3 4 4 4 5 5 5 6 7 7 8 9 10 10 11
4 4 7 7 5 1 4 3 2 4 3 3 2 2 3 4 4 3 4 4 4 4 4 3 4 5 4 3 3 4 3 3 3 3 4 5 5 5 5 6 6 7 8 8 9 10 10 10 11
4 4 5 4 2 3 5 1 1 2 4 2 1 3 4 4 3 2 2 1 2 3 3 4 4 4 5 4 3 3 3 3 4 3 4 3 3 3 4 5 6 8 9 9 10 10 11 11 11
4 4 2 5 7 5 3 2 2 2 5 5 4 2 3 2 1 2 3 2 2 3 3 4 4 4 4 4 4 4 4 4 4 4 4 3 3 3 4 3 5 7 9 10 10 10 10 9 8
4 4 3 3 6 5 3 4 3 5 6 5 2 0 2 1 3 3 3 2 2 3 4 3 3 3 3 3 2 2 3 3 4 4 4 4 3 3 2 1 2 3 5 5 6 7 7 7 6
4 5 3 2 3 3 5 5 6 8 7 4 3 2 2 4 4 3 3 3 2 2 3 3 3 2 2 3 2 1 1 1 2 3 4 2 1 1 2 1 2 2 2 3 3 4 6 7 7
7 4 3 3 2 5 7 9 8 11 9 7 4 3 5 6 5 3 2 2 1 1 2 2 2 1 1 1 2 2 1 1 2 3 4 3 1 1 2 2 2 2 2 3 3 4 5 6 7
3 4 5 5 6 6 8 10 8 10 8 8 7 7 7 6 5 4 2 2 1 0 1 2 2 1 1 1 2 2 2 2 2 2 4 4 2 1 2 3 2 2 3 3 3 4 4 5 5
3 5 8 8 7 3 3 9 10 11 7 8 8 8 7 6 5 4 3 2 2 1 1 1 1 2 2 2 2 2 2 2 1 2 4 4 3 2 2 3 3 2 3 3 3 4 3 4 5
5 5 5 5 6 5 2 8 3 6 6 8 8 7 6 6 5 3 3 3 2 1 1 1 1 2 2 2 2 2 2 2 2 2 3 4 4 3 2 2 3 3 2 2 3 3 3 4 4
7 6 5 4 5 4 5 9 5 4 7 8 9 8 6 5 4 4 3 3 2 1 1 1 1 1 2 2 2 2 2 2 2 2 2 3 4 4 2 3 3 3 3 3 4 4 3 4 4
2 4 5 2 5 4 8 12 11 8 9 10 9 7 6 5 5 5 4 4 3 2 1 1 1 1 2 2 2 2 2 2 2 2 3 4 4 4 2 3 3 3 3 3 4 4 4 4 4
6 6 8 5 0 2 9 14 14 11 9 9 8 7 6 5 4 4 4 4 3 3 2 1 1 2 2 2 2 2 3 3 3 3 4 4 5 5 3 3 3 3 4 5 5 4 5 4 3
6 8 8 6 1 4 10 15 15 12 9 7 5 4 4 4 4 4 3 3 2 2 2 2 2 2 3 2 2 3 3 3 4 4 4 5 5 5 4 4 4 4 4 5 5 4 4 4 3
7 7 6 6 8 7 8 10 7 3 4 3 2 2 3 4 4 4 4 3 2 1 1 2 2 3 4 3 3 3 3 3 3 4 4 5 5 5 5 5 5 5 5 5 6 5 6 5 5
5 2 4 5 5 5 2 6 6 4 6 6 5 5 4 4 4 3 3 2 2 2 2 2 3 4 4 4 4 4 4 5 5 4 5 5 6 6 6 6 5 5 5 6 7 6 5 6 6
1 3 4 5 6 6 5 6 8 5 6 6 6 5 5 5 4 4 3 3 3 3 3 3 4 5 5 5 5 6 6 5 5 5 6 6 6 6 7 6 6 6 6 6 7 7 7 6 6
1 1 5 4 2 5 7 7 7 3 5 6 5 5 5 5 4 3 3 3 2 2 2 3 5 6 5 5 6 7 7 7 6 6 6 6 5 5 7 6 6 6 6 7 7 8 8 8 7
3 1 1 1 3 7 4 5 7 1 4 5 6 5 4 4 3 2 2 2 2 3 3 4 6 6 6 6 6 7 8 8 8 7 7 6 5 5 6 7 6 6 7 8 8 8 9 9 9
6 4 4 4 4 2 1 6 6 3 4 5 4 4 4 2 2 2 2 2 3 3 4 5 6 7 6 6 7 7 8 6 6 7 7 7 6 6 7 7 8 8 9 9 9 8 10 9 10
5 5 1 1 3 4 6 6 4 5 5 4 3 2 3 2 2 2 2 2 3 4 4 5 5 6 6 6 7 8 7 7 7 7 7 6 6 6 7 8 9 9 9 10 9 9 10 10 10
4 2 3 4 4 5 7 7 4 5 5 4 3 3 3 3 2 2 2 2 3 4 4 4 5 6 7 6 6 7 6 7 7 7 8 8 8 8 8 9 9 9 10 10 10 10 10 11 10
6 4 5 4 4 4 5 4 1 5 4 3 3 2 3 3 3 3 2 3 3 4 4 5 6 6 6 6 6 7 7 7 7 7 8 8 8 8 8 9 9 10 10 11 10 11 11 12 11
7 8 8 5 6 5 4 6 1 3 3 2 1 2 3 3 3 2 2 3 4 5 5 5 6 6 6 6 6 7 8 7 7 8 8 8 8 8 8 8 9 10 11 11 11 12 11 12 11
Wind_Direction
293 264 247 244 237 233 241 237 127 84 55 37 20 5 19 28 31 102 124 27 30 67 73 69 56 49 43 45 50 54 59 71 78 102 144 177 177 184 182 186 183 183 182 176 175 168 162 157 153
289 257 237 238 241 240 236 208 133 85 67 58 34 337 42 73 77 97 83 14 34 69 73 68 60 51 44 42 44 46 46 45 47 62 124 184 199 212 207 204 201 197 190 181 173 168 167 161 159
272 257 240 233 233 242 322 69 91 82 78 73 90 10 29 69 74 83 74 11 47 70 77 71 63 52 45 41 39 41 41 36 28 28 37 172 209 213 217 216 208 204 199 189 180 169 164 166 163
256 226 239 244 252 260 14 69 70 96 118 142 74 99 76 56 68 80 65 28 43 65 77 76 68 55 46 40 35 34 33 32 25 17 3 311 261 236 231 226 219 215 205 194 187 180 173 170 172
245 239 230 236 243 254 62 61 66 236 162 150 321 90 85 77 80 67 54 31 33 50 68 77 71 62 52 42 34 31 26 22 20 11 355 319 279 257 244 234 224 219 214 205 196 186 181 177 181
244 242 241 239 235 194 119 97 230 258 210 114 334 308 111 107 81 52 42 34 35 45 64 81 76 66 56 47 37 29 22 15 6 351 328 307 276 255 249 238 232 227 221 214 206 198 189 186 187
262 258 256 268 264 171 125 94 255 268 239 97 360 317 129 101 74 50 42 39 37 36 49 65 69 60 48 43 37 29 10 359 349 328 300 283 273 257 243 238 232 229 222 220 215 208 202 198 195
298 279 257 258 261 210 85 83 21 341 332 43 355 292 115 93 64 41 33 32 36 35 36 45 44 38 26 17 21 18 349 332 326 309 295 285 276 265 246 235 231 231 224 222 221 216 209 204 198
289 263 266 290 321 74 88 102 112 349 296 286 279 348 66 70 47 16 353 358 27 36 38 40 34 27 11 357 8 349 337 325 318 313 308 304 299 287 267 243 234 229 227 226 222 218 213 207 202
234 256 308 14 13 33 69 336 339 281 256 241 218 174 102 68 358 303 297 317 12 29 37 48 38 16 1 355 356 342 351 350 341 346 344 329 318 305 298 275 251 239 233 229 224 221 211 200 195
230 256 331 24 25 4 338 292 277 273 265 257 255 115 79 356 274 277 294 319 6 33 39 48 37 14 358 337 342 349 351 348 345 347 345 333 334 327 327 303 261 246 235 223 222 212 204 195 190
266 270 303 347 40 321 292 289 279 251 258 306 344 350 300 265 268 275 298 318 353 46 52 49 33 10 358 346 323 321 339 337 338 334 331 334 316 313 299 260 235 226 221 217 209 209 213 208 201
243 272 284 285 252 258 272 267 269 260 260 269 267 256 252 253 258 265 284 306 347 36 65 61 39 24 357 326 303 327 318 322 328 333 323 324 306 301 288 275 248 243 238 220 229 231 223 217 212
315 298 280 260 249 251 264 267 253 249 232 232 227 229 234 238 238 249 259 275 293 48 75 65 36 29 357 333 311 304 308 310 329 334 323 322 317 288 291 285 268 258 238 224 233 241 237 229 223
304 278 261 228 221 213 290 271 233 235 225 228 226 228 226 226 225 229 226 224 231 155 87 60 18 8 343 329 312 309 302 312 291 289 311 313 316 308 293 287 278 262 256 253 255 255 246 244 237
228 239 244 184 186 149 206 277 244 172 197 228 232 234 223 221 214 208 204 188 190 140 118 101 357 351 323 312 295 292 300 303 285 295 303 302 300 302 295 286 280 275 261 254 263 262 257 247 240
213 240 243 165 181 177 218 267 270 186 213 234 235 231 218 204 201 191 179 165 162 145 145 168 164 299 298 282 270 275 283 286 282 289 287 290 288 287 275 271 273 277 271 260 261 265 260 254 246
252 266 277 237 175 223 249 264 272 255 241 242 241 229 212 196 195 176 167 157 155 152 160 202 199 257 282 277 276 281 284 288 286 277 275 281 279 277 268 260 261 270 268 264 255 257 261 256 246
319 305 293 296 195 258 265 274 274 266 249 241 236 222 204 193 165 147 156 160 161 165 185 224 243 267 277 269 275 270 265 274 279 266 270 275 278 276 255 262 254 256 258 257 257 259 257 258 247
269 278 282 294 33 303 279 279 275 257 241 232 228 220 199 169 158 148 159 165 177 181 192 239 244 258 267 252 246 242 246 247 248 253 254 254 261 265 261 254 253 250 255 259 258 256 256 256 227
255 259 279 302 328 272 272 287 254 202 180 171 201 196 187 175 164 158 172 176 174 179 203 275 275 273 267 256 250 259 263 263 260 262 253 246 249 252 251 250 250 246 245 252 254 248 245 248 236
264 307 304 311 316 294 303 297 270 212 188 184 195 194 183 155 151 159 167 171 186 201 199 252 266 268 264 261 253 252 256 258 259 253 251 250 244 244 247 247 247 245 245 248 253 253 250 242 237
254 24 314 287 275 284 242 244 274 210 201 192 181 174 159 148 154 166 176 193 208 202 208 233 256 261 260 258 255 252 255 254 256 261 260 256 249 239 239 240 242 245 247 246 248 251 248 245 240
105 295 266 250 260 263 223 214 274 226 193 164 154 150 145 149 163 173 182 197 220 220 225 243 258 262 261 256 256 252 254 258 263 266 261 257 253 245 240 239 240 246 250 248 247 246 244 246 247
186 176 299 244 223 247 200 210 251 296 82 124 146 151 148 149 159 172 196 216 235 244 253 254 261 266 266 264 260 256 250 251 252 257 259 259 258 256 245 248 242 246 250 249 246 246 243 241 243
197 197 190 231 253 289 197 232 247 161 112 104 113 134 140 156 175 194 217 241 252 257 260 267 269 272 271 268 267 260 251 245 248 252 255 255 252 251 245 244 244 249 254 253 246 247 245 242 239
180 213 257 286 293 279 249 244 221 152 137 142 152 170 186 212 223 233 244 260 274 282 278 277 279 281 277 270 270 268 256 247 250 256 257 257 255 255 247 245 247 251 256 252 246 245 243 240 237
260 193 150 180 226 255 256 237 233 160 169 174 185 199 221 237 253 271 278 278 282 287 289 292 282 278 276 270 272 279 269 257 253 257 260 258 257 256 253 252 251 253 257 253 247 244 240 241 238
188 204 195 203 226 231 263 255 54 130 150 177 193 204 244 264 274 276 271 278 291 302 299 292 289 284 282 276 276 277 274 265 260 258 259 260 258 257 257 255 256 256 259 256 249 243 241 241 240
203 199 182 190 224 219 250 265 349 108 116 132 211 264 269 265 273 281 287 296 300 298 295 295 290 283 283 281 282 280 276 267 263 261 261 265 264 261 261 260 261 261 263 256 249 246 242 240 238
Height
1483 1485 1487 1490 1492 1491 1483 1469 1462 1466 1468 1472 1473 1474 1476 1480 1484 1496 1497 1495 1495 1494 1493 1493 1494 1494 1495 1496 1497 1497 1498 1499 1500 1501 1502 1503 1504 1505 1506 1507 1508 1509 1510 1510 1511 1512 1512 1513 1513
1482 1486 1489 1489 1490 1489 1477 1466 1465 1469 1473 1475 1476 1477 1478 1483 1487 1491 1493 1494 1494 1494 1493 1493 1493 1494 1495 1496 1496 1497 1498 1499 1500 1500 1501 1502 1503 1504 1505 1506 1507 1508 1509 1510 1510 1511 1512 1512 1513
1483 1486 1489 1485 1483 1480 1472 1465 1466 1471 1474 1477 1478 1479 1481 1486 1489 1491 1492 1493 1494 1494 1493 1493 1493 1494 1494 1495 1496 1496 1497 1498 1499 1499 1500 1501 1502 1503 1504 1505 1506 1507 1508 1508 1509 1510 1511 1511 1512
1484 1487 1486 1484 1480 1470 1467 1468 1470 1473 1476 1478 1479 1481 1484 1488 1489 1491 1492 1493 1494 1493 1492 1492 1493 1493 1493 1494 1495 1495 1496 1497 1498 1498 1499 1500 1500 1501 1502 1503 1504 1505 1506 1507 1508 1508 1509 1510 1511
1484 1485 1484 1481 1475 1468 1467 1470 1473 1474 1476 1478 1480 1481 1485 1488 1488 1490 1491 1492 1493 1492 1491 1491 1492 1492 1492 1493 1493 1494 1495 1495 1496 1497 1497 1498 1499 1500 1500 1501 1502 1503 1504 1505 1506 1507 1507 1508 1509
1485 1481 1482 1479 1470 1465 1468 1472 1475 1475 1476 1478 1480 1482 1486 1487 1488 1489 1490 1491 1491 1491 1491 1490 1490 1491 1491 1491 1492 1492 1493 1493 1494 1495 1495 1496 1497 1497 1498 1499 1500 1501 1502 1503 1503 1504 1505 1506 1507
1484 1480 1478 1471 1467 1466 1469 1473 1475 1476 1477 1479 1481 1482 1484 1486 1487 1488 1489 1490 1490 1490 1489 1489 1489 1489 1489 1489 1490 1490 1491 1491 1492 1492 1493 1493 1494 1495 1496 1496 1497 1498 1499 1500 1501 1502 1503 1503 1504
1481 1479 1473 1469 1467 1468 1471 1474 1477 1478 1478 1480 1481 1482 1483 1485 1486 1487 1488 1488 1488 1488 1488 1488 1487 1487 1487 1487 1488 1488 1488 1489 1489 1489 1490 1491 1491 1492 1492 1493 1494 1495 1496 1497 1498 1499 1500 1500 1501
1481 1482 1476 1469 1468 1470 1473 1475 1478 1479 1479 1480 1481 1482 1482 1483 1484 1486 1487 1487 1487 1487 1487 1486 1485 1485 1485 1485 1485 1486 1486 1486 1486 1487 1487 1488 1488 1489 1489 1490 1491 1492 1493 1493 1494 1495 1496 1497 1498
1481 1481 1474 1472 1471 1472 1475 1477 1478 1479 1479 1479 1480 1481 1481 1482 1483 1484 1485 1485 1485 1485 1485 1484 1483 1483 1483 1483 1483 1483 1483 1484 1484 1484 1485 1485 1485 1486 1487 1487 1488 1488 1489 1490 1491 1492 1493 1494 1494
1478 1477 1473 1473 1474 1475 1477 1478 1478 1479 1478 1477 1478 1479 1479 1481 1482 1483 1483 1484 1483 1483 1482 1482 1481 1481 1481 1481 1481 1481 1481 1481 1482 1482 1482 1482 1482 1483 1483 1484 1484 1485 1486 1487 1487 1488 1488 1489 1490
1476 1474 1474 1475 1476 1478 1478 1477 1477 1476 1476 1475 1475 1476 1477 1479 1480 1480 1481 1481 1481 1481 1480 1479 1479 1479 1478 1478 1478 1478 1478 1479 1479 1479 1479 1479 1479 1480 1480 1480 1481 1481 1482 1482 1483 1484 1485 1485 1486
1476 1474 1474 1475 1476 1477 1477 1476 1476 1472 1472 1472 1473 1474 1475 1476 1477 1478 1479 1479 1479 1478 1478 1477 1477 1476 1476 1476 1475 1476 1476 1476 1476 1476 1476 1476 1476 1476 1477 1477 1477 1478 1478 1478 1479 1480 1481 1482 1482
1475 1474 1474 1474 1474 1474 1474 1472 1472 1466 1467 1469 1470 1471 1472 1473 1474 1475 1475 1476 1476 1476 1476 1475 1475 1474 1474 1473 1473 1473 1474 1473 1473 1473 1473 1473 1473 1473 1473 1474 1474 1474 1474 1474 1475 1476 1477 1478 1479
1476 1476 1473 1470 1471 1471 1473 1470 1465 1462 1464 1465 1467 1468 1469 1470 1471 1471 1472 1473 1473 1473 1473 1473 1473 1472 1472 1471 1471 1471 1470 1470 1470 1470 1470 1470 1470 1469 1469 1470 1470 1470 1471 1471 1471 1472 1473 1474 1475
1475 1474 1472 1465 1467 1469 1475 1470 1457 1458 1461 1462 1463 1464 1465 1466 1467 1468 1469 1469 1470 1470 1470 1470 1470 1469 1469 1468 1468 1468 1467 1467 1467 1467 1467 1467 1466 1466 1466 1466 1466 1467 1467 1467 1467 1468 1469 1469 1470
1472 1471 1465 1465 1465 1466 1470 1466 1457 1457 1458 1458 1459 1460 1461 1462 1463 1464 1466 1466 1467 1468 1467 1467 1467 1467 1466 1465 1465 1465 1464 1464 1464 1463 1463 1463 1463 1462 1462 1462 1462 1463 1463 1463 1463 1464 1465 1465 1465
1468 1466 1461 1461 1463 1464 1466 1461 1455 1454 1454 1453 1454 1455 1457 1458 1460 1461 1462 1463 1464 1464 1465 1464 1464 1464 1463 1462 1461 1461 1461 1460 1460 1460 1459 1460 1459 1459 1458 1457 1458 1458 1458 1459 1459 1459 1460 1460 1461
1465 1466 1465 1461 1460 1463 1463 1457 1451 1448 1448 1448 1449 1450 1452 1454 1457 1458 1459 1460 1461 1461 1462 1461 1461 1460 1459 1458 1457 1456 1456 1455 1455 1455 1455 1455 1455 1455 1454 1453 1453 1453 1453 1454 1454 1454 1455 1455 1457
1466 1468 1465 1460 1458 1461 1460 1454 1445 1441 1441 1442 1444 1446 1448 1451 1453 1455 1456 1457 1458 1458 1458 1458 1458 1457 1456 1455 1453 1453 1452 1451 1451 1451 1451 1451 1451 1451 1450 1449 1448 1448 1449 1449 1449 1450 1450 1450 1452
1465 1467 1465 1464 1462 1459 1460 1452 1439 1435 1437 1439 1441 1443 1445 1447 1450 1451 1453 1454 1455 1455 1455 1455 1454 1454 1453 1451 1450 1449 1448 1447 1447 1446 1446 1446 1446 1446 1446 1445 1444 1444 1444 1443 1444 1444 1444 1445 1446
1467 1463 1463 1465 1470 1467 1461 1467 1442 1436 1437 1438 1439 1441 1443 1445 1447 1449 1450 1451 1452 1452 1452 1451 1451 1450 1449 1448 1446 1445 1444 1442 1442 1441 1441 1441 1441 1441 1441 1440 1439 1438 1438 1438 1438 1439 1439 1440 1440
1464 1464 1465 1466 1469 1471 1462 1467 1447 1434 1436 1436 1437 1439 1440 1443 1445 1446 1448 1449 1449 1449 1448 1448 1447 1446 1444 1443 1442 1441 1440 1438 1437 1437 1436 1435 1435 1435 1435 1435 1434 1433 1432 1432 1433 1433 1433 1434 1434
1463 1466 1465 1466 1470 1477 1459 1460 1448 1433 1429 1431 1434 1437 1439 1441 1443 1444 1445 1446 1446 1445 1445 1444 1442 1441 1440 1438 1437 1436 1435 1434 1432 1431 1430 1430 1429 1429 1429 1428 1428 1427 1426 1426 1426 1426 1427 1427 1427
1465 1470 1474 1475 1477 1469 1446 1451 1444 1428 1426 1428 1432 1435 1437 1439 1440 1441 1442 1442 1442 1441 1440 1439 1437 1436 1435 1433 1432 1431 1430 1429 1427 1426 1425 1424 1423 1422 1422 1422 1421 1420 1419 1419 1419 1419 1419 1419 1420
1464 1465 1472 1474 1465 1453 1447 1450 1436 1425 1425 1428 1431 1433 1436 1437 1438 1439 1439 1439 1438 1437 1436 1435 1433 1431 1430 1428 1427 1426 1425 1424 1423 1422 1420 1419 1417 1416 1416 1415 1414 1413 1413 1412 1412 1412 1412 1412 1413
1460 1464 1460 1466 1465 1467 1452 1434 1425 1423 1425 1428 1430 1432 1434 1435 1436 1436 1436 1435 1434 1433 1432 1430 1428 1426 1425 1423 1422 1421 1419 1418 1417 1416 1415 1413 1412 1410 1409 1409 1408 1406 1406 1405 1404 1404 1404 1404 1405
1456 1456 1465 1470 1472 1463 1445 1435 1432 1425 1426 1428 1429 1430 1432 1433 1433 1433 1433 1432 1431 1429 1428 1426 1424 1422 1420 1418 1417 1415 1414 1413 1411 1410 1408 1407 1405 1404 1402 1401 1400 1399 1398 1397 1396 1396 1396 1397 1397
1458 1458 1459 1462 1461 1462 1453 1438 1419 1421 1423 1425 1427 1428 1429 1430 1430 1429 1429 1428 1427 1425 1423 1421 1419 1417 1415 1413 1411 1409 1408 1406 1405 1404 1402 1400 1399 1397 1395 1394 1393 1391 1390 1389 1388 1387 1388 1388 1389
1448 1449 1454 1464 1463 1459 1457 1442 1417 1418 1420 1422 1425 1426 1427 1427 1427 1426 1425 1424 1423 1421 1419 1417 1415 1412 1410 1408 1406 1403 1402 1400 1399 1397 1395 1394 1392 1390 1388 1387 1385 1383 1382 1381 1380 1379 1380 1381 1381